DKH1379 ZSSS-RJAA

Flight info

Callsign DKH1379
Flight time N/A
Altitude 41000
Route LAM73D LAMEN A593 SADLI Y590 BEDAR Y591 FUE Y23 KASTE Y81 RUTAS
Aircraft A333/H-SDE3GHIJ2J3J5M1RVWXY/LB2D1

Departure

Time 2026-04-29 06:27
Airport Shanghai Hongqiao International Airport (ZSSS)

Arrival

Time N/A
Airport Narita International Airport (RJAA)
Time Latitude Longitude Altitude Speed Heading
2026-04-29 06:11 31.19832 121.34196 24 ft 0 kts 178°
2026-04-29 06:15 31.19900 121.34198 24 ft 10 kts 220°
2026-04-29 06:16 31.19912 121.34219 24 ft 0 kts 267°
2026-04-29 06:16 31.19912 121.34228 25 ft 5 kts 270°
2026-04-29 06:16 31.19911 121.34220 24 ft 0 kts 268°
2026-04-29 06:17 31.19911 121.34219 24 ft 0 kts 268°
2026-04-29 06:17 31.19911 121.34204 24 ft 3 kts 268°
2026-04-29 06:18 31.19910 121.34174 24 ft 5 kts 266°
2026-04-29 06:18 31.19908 121.34127 23 ft 7 kts 267°
2026-04-29 06:18 31.19906 121.34071 22 ft 8 kts 267°
2026-04-29 06:18 31.19901 121.33991 22 ft 13 kts 261°
2026-04-29 06:19 31.19889 121.33873 21 ft 19 kts 267°
2026-04-29 06:19 31.19883 121.33713 21 ft 24 kts 266°
2026-04-29 06:19 31.19876 121.33524 23 ft 21 kts 267°
2026-04-29 06:19 31.19838 121.33433 23 ft 14 kts 192°
2026-04-29 06:20 31.19756 121.33439 23 ft 12 kts 176°
2026-04-29 06:20 31.19677 121.33443 23 ft 12 kts 178°
2026-04-29 06:20 31.19600 121.33446 23 ft 13 kts 177°
2026-04-29 06:20 31.19523 121.33452 23 ft 12 kts 177°
2026-04-29 06:21 31.19442 121.33456 22 ft 13 kts 177°
2026-04-29 06:21 31.19351 121.33461 21 ft 17 kts 177°
2026-04-29 06:21 31.19207 121.33466 21 ft 29 kts 177°
2026-04-29 06:21 31.18998 121.33480 21 ft 34 kts 178°
2026-04-29 06:22 31.18785 121.33492 23 ft 33 kts 176°
2026-04-29 06:22 31.18586 121.33503 23 ft 27 kts 177°
2026-04-29 06:22 31.18425 121.33511 23 ft 14 kts 178°
2026-04-29 06:22 31.18353 121.33495 23 ft 9 kts 245°
2026-04-29 06:23 31.18350 121.33423 23 ft 9 kts 265°
2026-04-29 06:23 31.18350 121.33354 23 ft 8 kts 285°
2026-04-29 06:23 31.18384 121.33320 23 ft 7 kts
2026-04-29 06:23 31.18400 121.33320 23 ft 0 kts 359°
2026-04-29 06:24 31.18406 121.33320 23 ft 0 kts 357°
2026-04-29 06:26 31.18407 121.33320 23 ft 0 kts 357°
2026-04-29 06:26 31.18464 121.33318 23 ft 34 kts 358°
2026-04-29 06:27 31.18942 121.33292 24 ft 121 kts 359°
2026-04-29 06:27 31.19850 121.33243 127 ft 175 kts 360°
2026-04-29 06:27 31.20886 121.33133 938 ft 179 kts 356°
2026-04-29 06:27 31.21835 121.33227 1927 ft 152 kts 16°
2026-04-29 06:28 31.22753 121.33247 2255 ft 166 kts 359°
2026-04-29 06:28 31.23751 121.33173 2544 ft 177 kts
2026-04-29 06:28 31.24922 121.33113 2773 ft 202 kts
2026-04-29 06:28 31.26221 121.33050 3399 ft 216 kts
2026-04-29 06:29 31.27637 121.32989 4018 ft 232 kts
2026-04-29 06:29 31.29232 121.32918 4722 ft 247 kts
2026-04-29 06:29 31.30883 121.32848 5597 ft 255 kts 360°
2026-04-29 06:29 31.32618 121.32775 6473 ft 263 kts 359°
2026-04-29 06:30 31.34461 121.32700 7339 ft 271 kts 358°
2026-04-29 06:30 31.38282 121.32538 8990 ft 289 kts 355°
2026-04-29 06:30 31.40281 121.32453 9810 ft 297 kts 354°
2026-04-29 06:31 31.42321 121.32420 10649 ft 305 kts
2026-04-29 06:31 31.44387 121.33166 11448 ft 321 kts 26°
2026-04-29 06:31 31.46113 121.34817 11972 ft 341 kts 48°
2026-04-29 06:31 31.47282 121.37221 12381 ft 359 kts 71°
2026-04-29 06:32 31.47759 121.40157 12768 ft 375 kts 83°
2026-04-29 06:32 31.48513 121.43113 13136 ft 395 kts 71°
2026-04-29 06:32 31.49448 121.46102 13402 ft 413 kts 70°
2026-04-29 06:32 31.50474 121.49310 13879 ft 423 kts 71°
2026-04-29 06:33 31.51517 121.52583 14502 ft 429 kts 70°
2026-04-29 06:33 31.52564 121.55853 15220 ft 430 kts 70°
2026-04-29 06:33 31.53604 121.59121 15740 ft 434 kts 70°
2026-04-29 06:33 31.54662 121.62443 16272 ft 438 kts 70°
2026-04-29 06:34 31.55720 121.65823 16689 ft 444 kts 71°
2026-04-29 06:34 31.56767 121.69212 17232 ft 446 kts 70°
2026-04-29 06:34 31.57826 121.72634 17658 ft 451 kts 71°
2026-04-29 06:34 31.58888 121.76069 18133 ft 454 kts 71°
2026-04-29 06:35 31.59967 121.79566 18630 ft 457 kts 71°
2026-04-29 06:35 31.61023 121.82999 19087 ft 460 kts 70°
2026-04-29 06:35 31.62094 121.86480 19367 ft 467 kts 71°
2026-04-29 06:35 31.63196 121.90058 19820 ft 469 kts 71°
2026-04-29 06:36 31.64294 121.93638 20164 ft 474 kts 71°
2026-04-29 06:36 31.65406 121.97260 20667 ft 473 kts 70°
2026-04-29 06:36 31.66523 122.00912 20927 ft 479 kts 71°
2026-04-29 06:36 31.67659 122.04621 21322 ft 481 kts 71°
2026-04-29 06:37 31.68791 122.08321 21563 ft 486 kts 71°
2026-04-29 06:37 31.69920 122.12025 21917 ft 488 kts 71°
2026-04-29 06:37 31.71066 122.15785 22367 ft 486 kts 71°
2026-04-29 06:37 31.72199 122.19494 22557 ft 492 kts 71°
2026-04-29 06:38 31.73345 122.23267 22865 ft 495 kts 72°
2026-04-29 06:38 31.74456 122.27097 23139 ft 496 kts 75°
2026-04-29 06:38 31.74915 122.31106 23314 ft 495 kts 93°
2026-04-29 06:38 31.74489 122.35091 23544 ft 490 kts 110°
2026-04-29 06:39 31.73391 122.38804 24010 ft 484 kts 115°
2026-04-29 06:39 31.72264 122.42513 24564 ft 481 kts 115°
2026-04-29 06:39 31.71195 122.46061 24812 ft 485 kts 115°
2026-04-29 06:39 31.70120 122.49631 25005 ft 489 kts 114°
2026-04-29 06:40 31.68987 122.53400 25233 ft 493 kts 115°
2026-04-29 06:40 31.67850 122.57172 25547 ft 495 kts 115°
2026-04-29 06:40 31.66749 122.60966 25944 ft 497 kts 111°
2026-04-29 06:40 31.66241 122.65033 26107 ft 513 kts 95°
2026-04-29 06:41 31.66608 122.69219 26290 ft 524 kts 81°
2026-04-29 06:41 31.67276 122.73412 26780 ft 519 kts 84°
2026-04-29 06:41 31.67855 122.77530 26965 ft 523 kts 84°
2026-04-29 06:41 31.68433 122.81750 27139 ft 527 kts 84°
2026-04-29 06:42 31.69005 122.85961 27459 ft 527 kts 84°
2026-04-29 06:42 31.69576 122.90229 27579 ft 532 kts 84°
2026-04-29 06:42 31.70147 122.94491 27908 ft 531 kts 85°
2026-04-29 06:42 31.70722 122.98794 28203 ft 532 kts 85°
2026-04-29 06:43 31.71293 123.03095 28405 ft 534 kts 84°
2026-04-29 06:43 31.71861 123.07355 28576 ft 538 kts 84°
2026-04-29 06:43 31.72434 123.11691 28822 ft 538 kts 84°
2026-04-29 06:43 31.73010 123.16054 28988 ft 541 kts 84°
2026-04-29 06:44 31.73587 123.20434 29157 ft 544 kts 84°
2026-04-29 06:44 31.74127 123.24522 29375 ft 544 kts 84°
2026-04-29 06:44 31.74700 123.28925 29736 ft 543 kts 84°
2026-04-29 06:44 31.75277 123.33316 29922 ft 546 kts 85°
2026-04-29 06:45 31.75852 123.37739 30156 ft 548 kts 84°
2026-04-29 06:45 31.76426 123.42127 30639 ft 544 kts 84°
2026-04-29 06:45 31.76888 123.46537 30899 ft 542 kts 90°
2026-04-29 06:45 31.76600 123.50849 31009 ft 535 kts 107°
2026-04-29 06:46 31.75486 123.54974 31456 ft 523 kts 117°
2026-04-29 06:46 31.74215 123.58926 31955 ft 521 kts 116°
2026-04-29 06:46 31.72941 123.62904 32445 ft 520 kts 116°
2026-04-29 06:46 31.71677 123.66849 32763 ft 522 kts 117°
2026-04-29 06:47 31.70546 123.70373 33235 ft 520 kts 117°
2026-04-29 06:47 31.69249 123.74420 33810 ft 518 kts 117°
2026-04-29 06:47 31.67983 123.78342 34262 ft 518 kts 117°
2026-04-29 06:47 31.66701 123.82328 34664 ft 519 kts 117°
2026-04-29 06:48 31.65441 123.86239 35247 ft 516 kts 117°
2026-04-29 06:48 31.64167 123.90190 35750 ft 516 kts 117°
2026-04-29 06:48 31.62912 123.94074 36146 ft 516 kts 117°
2026-04-29 06:48 31.61851 123.98107 36595 ft 524 kts 105°
2026-04-29 06:49 31.61604 124.02365 36894 ft 534 kts 90°
2026-04-29 06:49 31.62225 124.06634 37135 ft 540 kts 73°
2026-04-29 06:49 31.63346 124.10809 37551 ft 539 kts 74°
2026-04-29 06:49 31.64329 124.14959 37900 ft 539 kts 76°
2026-04-29 06:50 31.65259 124.19063 38233 ft 539 kts 76°
2026-04-29 06:50 31.66149 124.23048 38599 ft 539 kts 76°
2026-04-29 06:50 31.67044 124.27053 39016 ft 537 kts 75°
2026-04-29 06:50 31.67968 124.31232 39300 ft 538 kts 76°
2026-04-29 06:51 31.68886 124.35380 39571 ft 539 kts 75°
2026-04-29 06:51 31.69811 124.39552 39886 ft 538 kts 75°
2026-04-29 06:51 31.70737 124.43736 40146 ft 538 kts 76°
2026-04-29 06:51 31.71665 124.47971 40507 ft 536 kts 75°
2026-04-29 06:52 31.72588 124.52153 40755 ft 536 kts 75°
2026-04-29 06:52 31.73428 124.55996 41003 ft 536 kts 75°
2026-04-29 06:52 31.74272 124.59821 41073 ft 539 kts 75°
2026-04-29 06:53 31.76034 124.67875 41108 ft 545 kts 75°
2026-04-29 06:53 31.77893 124.76409 41110 ft 543 kts 75°
2026-04-29 06:54 31.79694 124.84686 41105 ft 542 kts 75°
2026-04-29 06:54 31.81421 124.92685 41109 ft 540 kts 75°
2026-04-29 06:55 31.82728 125.01092 41089 ft 541 kts 92°
2026-04-29 06:55 31.81625 125.08795 41134 ft 539 kts 106°
2026-04-29 06:56 31.80185 125.17268 41120 ft 537 kts 104°
2026-04-29 06:56 31.78775 125.25851 41107 ft 538 kts 103°
2026-04-29 06:57 31.77360 125.34438 41110 ft 540 kts 103°
2026-04-29 06:57 31.75941 125.43038 41094 ft 535 kts 104°
2026-04-29 06:58 31.74520 125.51579 41113 ft 538 kts 104°
2026-04-29 06:58 31.73121 125.59952 41095 ft 536 kts 103°
2026-04-29 06:59 31.72479 125.68709 41083 ft 534 kts 82°
2026-04-29 06:59 31.73340 125.72858 41148 ft 529 kts 70°
2026-04-29 06:59 31.74386 125.76968 41297 ft 530 kts 73°
2026-04-29 07:00 31.76219 125.85091 41481 ft 533 kts 74°
2026-04-29 07:00 31.77149 125.89296 41632 ft 533 kts 75°
2026-04-29 07:00 31.78068 125.93471 41788 ft 533 kts 74°
2026-04-29 07:00 31.78990 125.97678 41897 ft 533 kts 74°
2026-04-29 07:01 31.79911 126.01881 42084 ft 533 kts 74°
2026-04-29 07:01 31.81751 126.10310 42334 ft 533 kts 73°
2026-04-29 07:01 31.82658 126.14484 42511 ft 531 kts 74°
2026-04-29 07:02 31.83560 126.18633 42607 ft 532 kts 74°
2026-04-29 07:02 31.84479 126.22866 42769 ft 530 kts 73°
2026-04-29 07:02 31.85372 126.26980 42923 ft 529 kts 73°
2026-04-29 07:02 31.86274 126.31164 43093 ft 528 kts 73°
2026-04-29 07:03 31.87165 126.35279 43067 ft 532 kts 73°
2026-04-29 07:03 31.88973 126.43694 43090 ft 537 kts 73°
2026-04-29 07:04 31.90828 126.52203 43084 ft 541 kts 73°
2026-04-29 07:04 31.92675 126.60566 43083 ft 543 kts 73°
2026-04-29 07:05 31.94554 126.69074 43056 ft 546 kts 74°
2026-04-29 07:05 31.96444 126.77705 43045 ft 546 kts 73°
2026-04-29 07:06 31.98315 126.86259 43099 ft 539 kts 73°
2026-04-29 07:06 32.00169 126.94756 43073 ft 537 kts 73°
2026-04-29 07:07 32.02009 127.03253 43035 ft 540 kts 73°
2026-04-29 07:07 32.03877 127.11799 43027 ft 538 kts 71°
2026-04-29 07:07 32.05194 127.15743 43074 ft 533 kts 60°
2026-04-29 07:08 32.06715 127.19534 43096 ft 534 kts 62°
2026-04-29 07:08 32.09515 127.26885 43084 ft 534 kts 63°
2026-04-29 07:09 32.12385 127.34512 43075 ft 530 kts 63°
2026-04-29 07:09 32.15367 127.42447 43081 ft 534 kts 62°
2026-04-29 07:10 32.18355 127.50427 43083 ft 537 kts 63°
2026-04-29 07:10 32.21325 127.58392 43085 ft 537 kts 62°
2026-04-29 07:11 32.24313 127.66399 43079 ft 535 kts 63°
2026-04-29 07:11 32.27288 127.74400 43075 ft 536 kts 63°
2026-04-29 07:12 32.30256 127.82405 43071 ft 535 kts 63°
2026-04-29 07:12 32.33218 127.90400 43065 ft 535 kts 63°
2026-04-29 07:13 32.35984 127.97900 43076 ft 535 kts 63°
2026-04-29 07:13 32.38939 128.05907 43065 ft 534 kts 64°
2026-04-29 07:14 32.41896 128.13956 43066 ft 538 kts 64°
2026-04-29 07:14 32.44844 128.21997 43071 ft 538 kts 63°
2026-04-29 07:15 32.47782 128.30032 43064 ft 538 kts 63°
2026-04-29 07:15 32.50739 128.38127 43068 ft 536 kts 63°
2026-04-29 07:16 32.53655 128.46146 43072 ft 539 kts 64°
2026-04-29 07:16 32.56575 128.54175 43078 ft 539 kts 63°
2026-04-29 07:17 32.59336 128.61800 43084 ft 537 kts 63°
2026-04-29 07:17 32.61993 128.69153 43080 ft 536 kts 63°
2026-04-29 07:18 32.64486 128.76053 43070 ft 536 kts 63°
2026-04-29 07:18 32.67460 128.85193 43066 ft 542 kts 75°
2026-04-29 07:19 32.69146 128.93729 43073 ft 544 kts 74°
2026-04-29 07:19 32.70909 129.02351 43071 ft 544 kts 74°
2026-04-29 07:20 32.72669 129.10967 43077 ft 542 kts 75°
2026-04-29 07:20 32.74395 129.19441 43070 ft 543 kts 74°
2026-04-29 07:21 32.76129 129.28005 43063 ft 543 kts 74°
2026-04-29 07:21 32.77834 129.36446 43071 ft 545 kts 74°
2026-04-29 07:22 32.79470 129.44548 43075 ft 543 kts 74°
2026-04-29 07:22 32.81091 129.52635 43077 ft 541 kts 73°
2026-04-29 07:23 32.82687 129.60617 43095 ft 541 kts 74°
2026-04-29 07:23 32.84213 129.68306 43049 ft 542 kts 74°
2026-04-29 07:24 32.85466 129.76553 43056 ft 543 kts 79°
2026-04-29 07:24 32.86644 129.84717 43092 ft 542 kts 78°
2026-04-29 07:25 32.87824 129.92876 43060 ft 542 kts 78°
2026-04-29 07:25 32.89015 130.01143 43055 ft 542 kts 78°
2026-04-29 07:26 32.90196 130.09378 43067 ft 543 kts 78°
2026-04-29 07:26 32.91395 130.17770 43077 ft 543 kts 78°
2026-04-29 07:27 32.92602 130.26268 43217 ft 541 kts 78°
2026-04-29 07:27 32.93751 130.34384 43170 ft 540 kts 78°
2026-04-29 07:28 32.94892 130.42517 43179 ft 542 kts 78°
2026-04-29 07:28 32.96030 130.50615 43187 ft 540 kts 79°
2026-04-29 07:29 32.97164 130.58752 43193 ft 540 kts 78°
2026-04-29 07:29 32.98233 130.66483 43170 ft 539 kts 79°
2026-04-29 07:30 32.99359 130.74635 43154 ft 539 kts 79°
2026-04-29 07:30 33.00486 130.82843 43158 ft 540 kts 79°
2026-04-29 07:31 33.02169 130.95203 43166 ft 538 kts 79°
2026-04-29 07:31 33.03282 131.03387 43158 ft 538 kts 79°
2026-04-29 07:32 33.04391 131.11616 43149 ft 538 kts 79°
2026-04-29 07:32 33.05497 131.19867 43159 ft 539 kts 79°
2026-04-29 07:33 33.06587 131.28012 43164 ft 541 kts 79°
2026-04-29 07:33 33.07675 131.36212 43163 ft 541 kts 79°
2026-04-29 07:34 33.08765 131.44467 43176 ft 541 kts 79°
2026-04-29 07:34 33.09854 131.52750 43174 ft 540 kts 79°
2026-04-29 07:35 33.10957 131.61191 43177 ft 542 kts 79°
2026-04-29 07:35 33.12081 131.69858 43168 ft 542 kts 80°
2026-04-29 07:36 33.13199 131.78507 43172 ft 541 kts 80°
2026-04-29 07:36 33.14316 131.87216 43172 ft 541 kts 80°
2026-04-29 07:37 33.15431 131.95929 43176 ft 542 kts 80°
2026-04-29 07:37 33.16531 132.04585 43159 ft 542 kts 80°
2026-04-29 07:38 33.17608 132.13132 43162 ft 544 kts 79°
2026-04-29 07:38 33.18612 132.21124 43156 ft 540 kts 80°
2026-04-29 07:39 33.19598 132.28998 43156 ft 540 kts 80°
2026-04-29 07:39 33.20597 132.37042 43156 ft 540 kts 81°
2026-04-29 07:40 33.21603 132.45175 43152 ft 542 kts 80°
2026-04-29 07:40 33.22613 132.53416 43149 ft 539 kts 80°
2026-04-29 07:41 33.23615 132.61569 43152 ft 541 kts 80°
2026-04-29 07:41 33.24600 132.69676 43135 ft 540 kts 81°
2026-04-29 07:42 33.25595 132.77885 43140 ft 539 kts 81°
2026-04-29 07:42 33.26583 132.86147 43145 ft 539 kts 80°
2026-04-29 07:43 33.27591 132.94556 43149 ft 540 kts 81°
2026-04-29 07:43 33.28616 133.03172 43149 ft 538 kts 81°
2026-04-29 07:44 33.29611 133.11603 43150 ft 539 kts 81°
2026-04-29 07:44 33.30626 133.20245 43139 ft 540 kts 81°